Back to catalog

STARLINK-36184

AliveCommunicationsVLEO
NORAD 67021·PAYLOAD·🇺🇸 United States

Launched Dec 10, 2025 from Vandenberg Space Force Base

Loading…

Next Passes (next 24 hours)

TLE

FreshSource: CelesTrak SupGP

Epoch: Sep 14, 2026, 23:20 UTC

1 67021C 25293U   26257.97270833  .00005604  00000+0  46974-3 0  2572
2 67021  70.0022 337.3046 0003692 267.6533 252.9161 14.98317253    17

Track STARLINK-36184 in real time with AllMySat

Download on the App Store